星链-11426 (STARLINK-11426)

导读

STARLINK-11426是美国SpaceX公司星链星座的第二代互联网卫星,于2024年11月24日由猎鹰9号火箭发射入轨。作为星链Gen2批次成员,它配备增强型相控阵天线与激光星间链路,工作在近地轨道,可提供高速低延迟的全球宽带互联服务,支持住宅、移动等多场景接入,助力星链完成全球覆盖与容量扩展,目前已进入正常在轨工作状态。

Basic Information
目录编号:
62058
目录名称:
STARLINK-11426
国际标识:
2024-217B
轨道中心:
EARTH
卫星名称:
星链-11426
卫星全名:
星链-11426 (STARLINK-11426)
卫星状态:
在轨 (已飞行656 天)
发射日期:
2024-11-24 UTC
国别 :
美国 (US)
星等 :
--
This satellite is enrolled in the Space Conjunction Data Service (SCDS) and the current flight risk assessment level is: No High Risk
Orbit Information
数据来源 国际轨道数据
星历时间: 2026-09-11T14:19:41+0800
8小时前
查看轨道信息
半长轴: 6737.748km
偏心率: 0.0001447
轨道倾角: 53.157°
近地点辐角 72.020°
升交点赤经 236.179°
平近点角 288.097°
近地点: 358.636km
远地点: 360.586km
周期: 91.734分钟
每日圈数: 15.697505
Detailed Information
固有亮度:
5
最大亮度:
2.5
卫星平台:
Starlink V1.0
覆盖范围:
全球
运营商:
太空探索技术公司
运营商所在国:
美国
制造商(研发单位):
太空探索技术公司
制造商所在国:
美国
使用方式:
暂无
Satellite Introduction
Starlink 计划是 SpaceX 推出的全球卫星互联网项目,通过发射低轨道卫星,为全球尤其是偏远地区提供高速、低延迟的互联网服务。自 2019 年起,Starlink 已部署数千颗卫星,旨在缩小全球数字鸿沟,推动互联网普及。该项目还为军事、航空等行业提供通信支持,带来广泛经济效益。
2D Orbit Map
3D Orbit Map
Orbit Altitude Analysis Chart
Orbit Inclination Analysis Chart
Orbit Comprehensive Analysis Chart
View Comprehensive Chart
Conjunction Data List
Event ID Objects TCA Miss Dist (km) Collision Risk Probability Collision Risk Index (CRI) Action
CDM_260913-073106-169906-205821
2026-09-13T
07:31:10+0000
1.918 km
极远距离
1.567368E-6 低风险 0.39
CDM_260913-102506-205806-242121
2026-09-13T
10:25:41+0000
2.821 km
极远距离
1.115959E-6 低风险 0.36
CDM_260912-012106-205806-366721
2026-09-12T
01:21:56+0000
2.716 km
极远距离
4.489828E-7 极低风险 0.28
Miss Distance Evolution Trend with All Objects
Collision Probability Evolution Trend with All Objects